Regional Weather Roundup
Issued by NWS Cleveland, OH

Home | Current Version | Previous Version | Text Only | Print | Product List | Glossary On
Versions: 1 2 3 4 5 6 7 8 9 10 11 12 13 14 15 16 17 18 19 20 21 22 23 24 25 26 27 28 29 30 31 32 33 34 35 36 37 38 39 40 41 42 43 44 45 46 47 48 49 50
000
ASUS41 KCLE 242012
RWRCLE
OHIO REGIONAL WEATHER ROUNDUP
NATIONAL WEATHER SERVICE WILMINGTON, OH
400 PM EDT SUN JUL 24 2016

NOTE: "FAIR" INDICATES FEW OR NO CLOUDS BELOW 12,000 FEET WITH NO
SIGNIFICANT WEATHER AND/OR OBSTRUCTIONS TO VISIBILITY.

OHZ001>008-015>018-024>027-034-035-043-044-242100-
   NORTHWEST OHIO

CITY           SKY/WX    TMP DP  RH WIND       PRES   REMARKS
DEFIANCE       FAIR      86  70  58 S9        29.95F HX  90
FINDLAY        FAIR      83  67  58 SE8       29.96F
TOLEDO EXPRESS FAIR      74  73  97 CALM      29.94F
TOLEDO EXEC    FAIR      76  73  91 SW6       29.94F
LIMA           FAIR      87  71  58 E10       30.00F HX  93
$$

OHZ009>014-019>023-028>033-038-089-242100-
   NORTHEAST OHIO

CITY           SKY/WX    TMP DP  RH WIND       PRES   REMARKS
CLE-HOPKINS    CLOUDY    83  71  67 W13       30.01S
CLE-LAKEFRONT  LGT RAIN  81  73  76 W12       29.97S
CUY CO. ARPT   LGT RAIN  82  75  78 W14       30.01R
LORAIN-ELYRIA  LGT RAIN  75  69  81 W9G18     30.00S
ASHTABULA      PTSUNNY   81  72  74 W13       29.99R
AKRON-CANTON   LGT RAIN  78  70  76 N6        30.02F
WOOSTER        FAIR      81  71  71 W9        30.02S
MANSFIELD      PTSUNNY   82  68  62 W10       30.04R
YOUNGSTOWN     LGT RAIN  74  71  91 E5        30.01F
$$

OHZ042-051>053-060>062-070>072-077>081-242100-
  SOUTHWEST OHIO

CITY           SKY/WX    TMP DP  RH WIND       PRES   REMARKS
CINC-COVINGTON FAIR      91  74  57 SW6       30.00F HX 100
CINC-LUNKEN    PTSUNNY   92  74  55 S9        29.98F HX 101
HAMILTON       FAIR      94  74  52 SW9       29.99F HX 104
DAYTON         PTSUNNY   90  73  57 W12       30.01F HX  98
WRIGHT-PAT AFB FAIR      93  74  54 W9        29.98F HX 104
DAYTON GENERAL FAIR      94  71  47 W8        29.99F HX 101
WILMINGTON     FAIR      93  74  53 SW12      30.00F HX 103
$$

OHZ036-037-039>041-045>050-054>059-063>069-073>076-082>088-242100-
  CENTRAL AND SOUTHEAST OHIO

CITY           SKY/WX    TMP DP  RH WIND       PRES   REMARKS
COLUMBUS       PTSUNNY   91  70  49 W10       29.99S HX  96
OSU AIRPORT    FAIR      82  72  71 N14G26    30.02R
BOLTON FIELD   MOSUNNY   91  73  55 W8        30.01S HX 100
RICKENBACK AFB FAIR      92  74  56 W8        29.99S HX 101
NEWARK         FAIR      91  72  53 W10       30.00S HX  98
MARION         FAIR      84  67  56 NW3       30.04S
LANCASTER      FAIR      92  75  57 W7        30.00F HX 103
ZANESVILLE     FAIR      95  72  47 W8        30.00S HX 103
NEW PHILLY     FAIR      93  69  45 W13G23    30.00S HX  98
$$



USA.gov is the U.S. government's official web portal to all federal, state and local government web resources and services.